Ayers Aviation
2350 Airport Dr
Gainesville, Tx 76240

Email – ayersaviation@gmail.com
Phone – (940)782-8062
Join us on facebook! www.facebook.com/ayersaviation

Ayers Aviation is Located at Gainesville Municipal Airport (KGLE). The airport has been in operation since 1943 and is managed by the City of Gainesville, Texas.

Airport Coordinates:
N33°39.13′ / W97°11.84′
Located 3 miles West of Gainesville, Texas – situated on 1336 acres of land West of Interstate 35 on US Highway 82

Gainesville Municipal (KGLE) Details

Surveyed Elevation is 846 feet MSL.
Magnetic Variation from 2020 is 3° East

Runways: 18/36 is  6000 X 100 Feet Asphalt – in Good Condition. Left Traffic Pattern.

13/31 is  4703 X 75 Feet Asphalt – in Good Condition. Left Traffic Pattern.
Fuel: 100LL (blue), Jet-A

100LL FUEL AVBL 24 HRS WITH CREDIT CARD. FOR JET A FUEL AFT HRS CALL 940-668-4565.
Transient Storage: Hangars,Tiedowns
Other Services: CROP DUSTING SERVICES,PILOT INSTRUCTION,AIRCRAFT RENTAL
Make your Flight Plan at SkyVector.com

Latest Observations at KGLE

KGLE 200055Z AUTO 00000KT 10SM CLR 06/00 A3024 RMK AO2 T00641001
KGLE 200035Z AUTO 34003KT 10SM CLR 06/00 A3023 RMK AO2 T00621001
KGLE 200015Z AUTO 34003KT 10SM CLR 07/00 A3022 RMK AO2 T00671001


Data Provided by AVIATIONWEATHER.GOV